MST,Max TemperatureF,Mean TemperatureF,Min TemperatureF,Max Dew PointF,MeanDew PointF,Min DewpointF,Max Humidity, Mean Humidity, Min Humidity, Max Sea Level PressureIn, Mean Sea Level PressureIn, Min Sea Level PressureIn, Max VisibilityMiles, Mean VisibilityMiles, Min VisibilityMiles, Max Wind SpeedMPH, Mean Wind SpeedMPH, Max Gust SpeedMPH,PrecipitationIn, CloudCover, Events, WindDirDegrees
2011-11-1,44,34,24,31,26,18,92,64,36,30.60,30.35,30.22,10,7,0,18,3,24,0.02,6,Fog-Snow,319
2011-11-2,44,32,19,21,18,16,84,60,36,30.61,30.41,30.07,10,10,10,17,5,21,0.00,0,,148
2011-11-3,49,34,19,21,19,15,84,59,34,30.08,29.90,29.72,10,10,10,9,2,9,0.00,0,,291
2011-11-4,43,35,27,32,27,21,96,71,45,29.78,29.70,29.62,10,7,2,12,2,15,0.04,6,Snow,122
2011-11-5,35,30,25,31,28,22,100,81,61,29.91,29.75,29.68,10,5,0,12,3,13,0.06,8,Fog-Snow,318
2011-11-6,38,29,19,21,18,14,84,62,40,30.18,30.02,29.92,10,10,10,7,1,8,0.00,3,,299
2011-11-7,34,26,18,24,19,14,84,70,56,30.32,30.26,30.16,10,10,10,7,1,8,T,6,,151
2011-11-8,41,32,23,30,25,21,88,74,59,30.50,30.35,30.20,10,10,10,20,1,41,0.00,6,,3
2011-11-9,43,31,19,27,21,17,92,68,43,30.63,30.52,30.39,10,8,0,6,1,7,0.00,0,Fog,342
2011-11-10,43,31,19,25,21,16,91,71,50,30.43,30.25,30.10,10,10,9,8,0,10,0.00,0,,90
2011-11-11,54,36,17,29,20,14,88,57,26,30.08,29.73,29.42,10,10,8,23,4,31,0.00,2,,298
2011-11-12,43,36,29,34,25,19,92,72,52,29.73,29.60,29.39,10,9,2,22,5,29,0.05,8,Rain-Snow,311
2011-11-13,37,33,29,32,30,27,96,87,78,29.69,29.58,29.46,10,5,1,10,4,12,0.15,8,Snow,93
2011-11-14,37,32,26,32,29,19,96,78,59,29.95,29.64,29.53,10,4,0,32,8,38,0.08,8,Fog-Snow,300
2011-11-15,31,23,14,25,20,9,81,75,68,30.43,30.11,29.91,10,7,1,25,5,30,0.01,7,Snow,312
2011-11-16,25,17,8,15,11,5,84,72,60,30.52,30.37,30.06,10,10,10,6,1,7,0.00,3,,284
2011-11-17,40,32,23,32,23,16,92,68,44,30.00,29.74,29.62,10,7,2,23,5,33,0.16,6,Rain-Snow,313
2011-11-18,31,24,16,22,16,4,96,73,50,29.86,29.65,29.54,10,9,2,23,13,29,T,8,Snow,117
2011-11-19,21,17,12,14,8,1,92,71,49,30.08,29.92,29.80,10,6,1,23,9,28,0.04,8,Snow,343
2011-11-20,26,19,11,18,12,8,92,78,63,30.11,30.03,29.92,10,7,2,6,2,7,0.03,7,Snow,291
2011-11-21,35,25,15,27,20,14,92,81,69,30.08,30.04,29.98,10,9,5,8,2,9,0.00,6,,110
2011-11-22,49,38,27,36,31,25,78,66,54,30.00,29.93,29.83,10,10,10,29,14,37,T,6,,150
2011-11-23,57,46,35,35,29,20,82,53,24,29.92,29.76,29.62,10,10,10,33,6,43,0.00,2,,138
2011-11-24,55,44,33,37,32,21,96,62,28,29.83,29.75,29.61,10,10,10,17,4,24,0.01,7,Rain,330
2011-11-25,40,31,22,34,27,15,96,74,52,30.67,30.01,29.69,10,8,0,36,6,46,0.22,7,Fog-Rain-Snow,283
2011-11-26,31,24,17,21,17,13,84,71,58,30.75,30.66,30.51,10,10,10,10,3,13,0.00,3,,227
2011-11-27,51,35,18,32,22,15,92,71,50,30.55,30.32,30.12,10,10,10,35,4,45,0.00,0,,297
2011-11-28,47,37,27,34,31,23,92,75,58,30.47,30.38,30.17,10,10,10,22,3,35,T,5,,316
2011-11-29,37,32,26,30,28,23,92,84,75,30.44,30.31,30.07,10,10,7,6,1,7,T,5,,310
2011-11-30,39,33,26,32,28,18,89,76,63,30.72,30.32,30.00,10,9,5,18,8,23,T,7,Rain-Snow,330